Location: ???? ?????? ????
(31.1230°N, 31.7251°E)
Time: 04:16:11
(UTC+00:00)

Daily predictions for brighter satellites

Satellite Brightness Start Highest point End
(mag) Time Altitude Azimuth Time Altitude Azimuth Time Altitude Azimuth
ADEOS II 4.2 00:12:59 10° NNE 00:14:40 21° NNE 00:14:40 21° NNE
ATLAS 3B R/B 3.4 00:22:21 46° ENE 00:22:21 46° ENE 00:27:21 10° NE
ARIANE 5 R/B 4.4 00:18:26 10° NNE 00:20:42 26° NNE 00:20:42 26° NNE
IDEFIX/ARIANE 42P 4.4 00:24:00 10° NE 00:27:41 26° E 00:27:41 26° E
Cosmos 2227 Rocket 4.1 00:33:30 21° N 00:33:30 21° N 00:35:28 10° N
USA 267 3.6 00:24:52 10° NE 00:30:06 61° NE 00:30:06 61° NE
ATLAS 5 CENTAUR R/B 3.1 01:10:34 53° SSE 01:11:01 55° SE 01:14:17 10° NE
CENTAUR R/B 3.5 01:12:47 31° NW 01:12:47 31° NW 01:17:55 10° NNE
SL-16 R/B 2.2 01:07:58 10° NNW 01:13:39 77° ENE 01:19:18 10° SSE
MSX 4.3 01:09:16 10° NNE 01:14:57 56° E 01:17:06 36° SSE
Cosmos 1867 3.5 01:15:42 76° N 01:15:42 76° N 01:20:46 10° NNE
BREEZE-M DEB (TANK) 3.7 01:16:57 16° NNW 01:20:12 44° NE 01:24:19 10° ESE
Meteor 1-13 Rocket 4.1 01:23:29 65° S 01:24:24 90° ESE 01:30:04 10° N
Okean 2 Rocket 3.5 01:20:29 10° N 01:24:05 56° N 01:24:05 56° N
Gbstr 26 Del rocket 3.8 01:24:32 66° W 01:25:21 76° NW 01:31:01 10° NE
Cosmos 2151 Rocket 4.1 01:22:36 10° N 01:26:55 55° E 01:28:30 35° SE
NOSS 3-3 (A) 4.5 01:23:06 10° NNW 01:31:01 73° WSW 01:39:29 10° SSE
NOSS 3-3 (C) 4.5 01:23:12 10° NNW 01:31:07 74° WSW 01:39:35 10° SSE
ATLAS 5 CENTAUR R/B 4.0 01:26:12 10° N 01:31:48 36° NE 01:38:01 10° ESE
Nadezhda 4 Rocket 3.9 01:33:49 52° SW 01:35:15 67° W 01:41:34 10° N
Cosmos 2263 Rocket 2.1 01:33:44 49° S 01:35:21 83° ESE 01:41:03 10° NNE
CZ-2C R/B 3.3 01:33:31 10° NNE 01:37:51 42° E 01:41:26 14° SSE
CZ-4B R/B 2.2 01:40:56 31° SE 01:42:16 52° ENE 01:45:41 10° N
CBERS 1 LM4 rocket 4.5 01:50:35 10° N 01:55:35 65° WNW 01:57:48 34° SW
Cosmos 1689 Rocket 3.9 01:54:08 10° SE 01:56:51 32° ENE 01:59:34 10° N
Meteor 1-12 Rocket 4.3 01:53:24 10° NNW 01:59:11 58° W 02:04:49 10° S
Cosmos 1437 Rocket 3.2 01:58:07 15° S 02:01:24 63° E 02:05:26 10° NNE
COSMOS 2441 4.5 01:58:19 10° N 02:02:58 52° WNW 02:04:42 34° SW
STARLINK-1163 4.4 02:04:23 25° S 02:06:02 40° SE 02:09:32 10° ENE
Okean 1 Rocket 3.4 02:01:47 10° N 02:06:09 67° E 02:10:32 10° SSE
STARLINK-1145 4.5 02:04:43 23° S 02:06:19 36° SE 02:09:39 10° ENE
STARLINK-1149 4.3 02:05:34 25° S 02:07:21 42° SE 02:10:59 10° ENE
IDEFIX/ARIANE 42P 3.5 02:03:28 10° NNW 02:07:50 28° WNW 02:08:30 27° W
STARLINK-1161 4.4 02:06:45 23° S 02:08:26 38° SE 02:11:48 10° ENE
STARLINK-1160 4.3 02:08:47 23° S 02:10:33 40° SE 02:13:57 10° ENE
ATLAS 3B R/B 3.8 02:09:37 20° WNW 02:11:50 24° NW 02:17:06 10° N
STARLINK-1179 3.2 02:11:24 40° SSW 02:12:16 60° SE 02:15:20 10° NE
STARLINK-1176 3.1 02:11:51 40° SSW 02:12:44 61° SE 02:15:48 10° NE
STARLINK-1173 3.2 02:14:15 35° SSW 02:15:18 60° SE 02:18:23 10° NE
STARLINK-1136 3.1 02:14:42 35° SSW 02:15:46 61° SE 02:18:50 10° NE
Cosmos 1674 Rocket 4.4 02:16:43 28° W 02:17:10 28° W 02:20:57 10° NNW
PAYLOAD A 4.2 02:13:32 10° N 02:18:42 54° WNW 02:22:51 15° SSW
STARLINK-1183 3.1 02:20:50 27° SSW 02:22:17 62° SE 02:25:22 10° NE
STARLINK-43 3.8 02:18:57 10° NW 02:22:36 61° NE 02:26:15 10° SE
STARLINK-1181 3.1 02:21:16 27° SSW 02:22:44 63° SE 02:25:48 10° NE
Meteor 1-31 Rocket 3.2 02:19:02 10° NNE 02:22:55 65° E 02:26:46 10° S
STARLINK-1196 3.1 02:21:43 27° SSW 02:23:12 64° SE 02:26:16 10° NE
STARLINK-1186 3.1 02:22:08 27° SSW 02:23:37 65° SE 02:26:41 10° NE
STARLINK-1185 3.1 02:22:34 27° SSW 02:24:05 67° SE 02:27:10 10° NE
STARLINK-1175 3.0 02:23:00 27° SSW 02:24:30 67° SE 02:27:35 10° NE
SWIFT 4.4 02:24:24 13° SSW 02:24:59 13° SSW 02:26:59 10° SSE
STARLINK-1147 3.0 02:23:26 26° SSW 02:24:59 69° SE 02:28:05 10° NE
STARLINK-1146 3.0 02:23:52 26° SSW 02:25:26 70° SE 02:28:32 10° NE
STARLINK-1152 3.0 02:24:18 26° SSW 02:25:53 71° SE 02:28:59 10° NE
STARLINK-1195 2.9 02:24:44 26° SSW 02:26:19 72° SE 02:29:23 10° NE
STARLINK-1137 2.9 02:25:10 25° SSW 02:26:46 73° SE 02:29:52 10° NE
STARLINK-1142 2.9 02:25:36 25° SSW 02:27:13 74° SE 02:30:18 10° NE
STARLINK-1127 2.9 02:26:02 25° SSW 02:27:40 75° SE 02:30:46 10° NE
Aureole 3 Rocket 4.0 02:24:26 10° N 02:27:48 37° E 02:30:41 10° SSE
STARLINK-1184 2.9 02:26:28 25° SW 02:28:08 76° SE 02:31:14 10° NE
STARLINK-1193 2.9 02:26:54 25° SW 02:28:33 77° SE 02:31:39 10° NE
STARLINK-1194 2.9 02:27:20 24° SW 02:29:02 79° SE 02:32:07 10° NE
Cosmos 1943 3.5 02:24:44 10° NNW 02:30:26 71° ENE 02:36:05 10° SSE
ADEOS 4.0 02:26:20 10° N 02:31:14 43° WNW 02:36:03 10° SW
ALOS 3.5 02:26:49 10° NNE 02:31:17 43° E 02:35:42 10° S
Shenzhou-11 Module 4.0 02:33:56 12° NW 02:35:00 14° NNW 02:36:29 10° NNE
SL-24 R/B - RUBIN 2 4.5 02:33:09 10° NNW 02:39:53 79° WSW 02:46:11 10° SSE
Delta 142 4.2 02:35:21 15° W 02:40:21 60° S 02:45:09 10° ESE
USA 234 4.2 02:37:22 10° ESE 02:43:37 50° NE 02:49:52 10° NNW
Cosmos 1378 3.9 02:47:31 10° SW 02:50:51 32° W 02:54:14 10° NNW
Cosmos 1766 3.1 02:48:08 10° N 02:52:00 83° W 02:55:51 10° S
Cosmos 1371 Rocket 4.4 02:50:01 10° S 02:55:20 73° ESE 03:00:42 10° NNE
BREEZE-M DEB (TANK) 1.2 02:53:20 10° SW 02:56:03 74° SE 02:58:23 10° NE
Cosmos 1844 Rocket 2.9 02:50:52 10° SSW 02:56:29 81° ESE 03:02:10 10° NNE
Lacrosse 4 Rocket 1.7 02:58:01 10° SSW 03:02:18 75° ESE 03:06:44 10° NNE
Cosmos 1733 3.2 02:59:08 10° N 03:02:59 86° W 03:06:50 10° S
STARLINK-1150 3.9 03:00:30 10° WSW 03:03:59 41° NW 03:07:29 10° NNE
Cosmos 1842 3.5 03:00:37 10° SSW 03:04:22 48° W 03:08:10 10° N
Lacrosse 5 1.9 02:59:55 10° SW 03:04:58 71° NW 03:10:01 10° NNE
SKYMED 2 4.3 03:02:10 10° SSE 03:06:25 61° ENE 03:10:42 10° N
Cosmos 1455 Rocket 3.2 03:02:09 10° N 03:06:37 88° E 03:11:03 10° S
STARLINK-1151 4.0 03:06:11 10° WSW 03:09:30 37° NW 03:12:50 10° NNE
Okean 2 4.3 03:06:13 10° SW 03:09:45 27° W 03:13:18 10° NNW
Cosmos 1484 Rocket 3.3 03:07:05 10° N 03:10:33 35° WNW 03:13:57 10° SW
Cosmos 1417 Rocket 4.5 03:06:42 10° NNW 03:12:42 63° W 03:18:44 10° S
